OPS 0082 (TRANSIT 13)

导读

OPS 0082(又称TRANSIT 13/子午仪O-9)是美国研制的导航卫星,隶属子午仪卫星系列,由应用物理实验室研发。它于1966年5月19日从范登堡空军基地发射升空,运载火箭为侦察兵-A。轨道参数为924km×835km,倾角90.2°,国际卫星标识符1966-041A,NORAD编号2176,是美国早期卫星导航系统的重要组成星。

基本信息
目录编号:
2176
目录名称:
OPS 0082 (TRANSIT 13)
国际标识:
1966-041A
轨道中心:
EARTH
卫星名称:
OPS 0082 (TRANSIT 13)
卫星全名:
--
卫星状态:
在轨 (已飞行21971 天)
发射日期:
1966-05-19 UTC
国别 :
美国 (US)
星等 :
--
轨道信息
数据来源 国际轨道数据
星历时间: 2026-07-14T12:19:36+0800
6小时前
查看轨道信息
半长轴: 7256.942km
偏心率: 0.0063345
轨道倾角: 90.228°
近地点辐角 23.206°
升交点赤经 83.904°
平近点角 337.196°
近地点: 832.835km
远地点: 924.775km
周期: 102.539分钟
每日圈数: 14.043401
详细信息
使用方式:
暂无
2D轨道图
3D轨道图
轨道高度分析图
轨道倾角分析图
轨道综合分析图
查看轨道综合分析图